Paducah, KY

5:08 AM CDT on July 28, 2017 (GMT -0500)
Barkley Regional

Weather History for KPAH - July, 2014

Change the Weather History Date:

Monday, July 21, 2014

  Actual Average Record
Temperature  
Mean Temperature 75 °F 79 °F  
Max Temperature 89 °F 89 °F 99 °F (1983)
Min Temperature 61 °F 69 °F 54 °F (1971)
Degree Days  
Heating Degree Days 0 0  
Month to date heating degree days 0 0  
Since 1 June heating degree days 0 4  
Since 1 July heating degree days 0 0  
Cooling Degree Days 10 14  
Month to date cooling degree days 219 294  
Year to date cooling degree days 902 786  
Since 1 June cooling degree days 624 614  
Growing Degree Days 25 (Base 50)    
Moisture  
Dew Point 62 °F    
Average Humidity 69    
Maximum Humidity 93    
Minimum Humidity 44    
Precipitation  
Precipitation 0.00 in 0.14 in 2.60 in (2009)
Month to date precipitation 1.82 3.09  
Year to date precipitation 28.70 28.37  
Snow  
Snow 0.00 in 0.00 in 0.00 in (2002)
Month to date snowfall 0.0 0.0  
Since 1 June snowfall 0.0 0.0  
Since 1 July snowfall 0.0 0.0  
Snow Depth 0.00 in    
Sea Level Pressure  
Sea Level Pressure 30.05 in    
Wind  
Wind Speed 2 mph (NW)    
Max Wind Speed 8 mph    
Max Gust Speed 20 mph    
Visibility 6 miles    
Events      
T = Trace of Precipitation, MM = Missing Value Source: NWS Daily Summary

Daily Weather History Graph

Daily Weather History Graph

Search for Another Location

Airport or City:

Trip Planner

Search our weather history database for the weather conditions in past years. The results will help you decide how hot, cold, wet, or windy it might be!

Date:

Astronomy

Jul. 21, 2014 Rise Set
Actual Time 5:51 AM CDT 8:11 PM CDT
Civil Twilight 5:21 AM CDT 8:40 PM CDT
Nautical Twilight 4:45 AM CDT 9:17 PM CDT
Astronomical Twilight 4:05 AM CDT 9:56 PM CDT
Moon 1:40 AM CDT (7/21) 3:54 PM CDT (7/21)
Length of Visible Light 15h 18m
Length of Day
14h 19m
Waning Crescent, 24% of the Moon is Illuminated
Jul 21
Waning Crescent
Jul 26
New
Aug 3
First Quarter
Aug 10
Full
Aug 17
Last Quarter

Hourly Weather History & Observations

Time (CDT) Temp. Heat Index Dew Point Humidity Pressure Visibility Wind Dir Wind Speed Gust Speed Precip Events Conditions
12:53 AM 64.0 °F - 61.0 °F 90% 30.02 in 4.0 mi Calm Calm - N/A   Clear
1:36 AM 64.0 °F - 60.1 °F 87% 30.03 in 1.8 mi Calm Calm - N/A   Clear
1:46 AM 63.0 °F - 60.1 °F 90% 30.03 in 3.0 mi Calm Calm - N/A   Clear
1:53 AM 63.0 °F - 60.1 °F 90% 30.02 in 4.0 mi Calm Calm - N/A   Clear
2:01 AM 63.0 °F - 60.1 °F 90% 30.03 in 1.8 mi Calm Calm - N/A   Clear
2:09 AM 63.0 °F - 60.1 °F 90% 30.03 in 3.0 mi Calm Calm - N/A   Clear
2:53 AM 62.1 °F - 59.0 °F 90% 30.02 in 4.0 mi Calm Calm - N/A   Clear
3:53 AM 63.0 °F - 59.0 °F 87% 30.03 in 5.0 mi Calm Calm - N/A   Clear
4:48 AM 62.6 °F - 59.0 °F 88% 30.05 in 2.5 mi Calm Calm - N/A   Clear
4:53 AM 63.0 °F - 60.1 °F 90% 30.04 in 3.0 mi Calm Calm - N/A   Clear
5:29 AM 62.1 °F - 59.0 °F 90% 30.06 in 2.0 mi Calm Calm - N/A   Clear
5:36 AM 61.0 °F - 57.9 °F 90% 30.06 in 1.2 mi Calm Calm - N/A   Clear
5:42 AM 61.0 °F - 57.9 °F 90% 30.07 in 3.0 mi Calm Calm - N/A   Clear
5:53 AM 61.0 °F - 57.0 °F 87% 30.06 in 6.0 mi Calm Calm - N/A   Clear
6:21 AM 62.1 °F - 59.0 °F 90% 30.08 in 1.8 mi Calm Calm - N/A   Clear
6:34 AM 62.1 °F - 59.0 °F 90% 30.08 in 2.5 mi Calm Calm - N/A   Clear
6:53 AM 63.0 °F - 60.1 °F 90% 30.07 in 3.0 mi Calm Calm - N/A   Clear
7:53 AM 70.0 °F - 64.9 °F 84% 30.09 in 6.0 mi Calm Calm - N/A   Haze
8:53 AM 75.9 °F - 66.0 °F 71% 30.11 in 9.0 mi Calm Calm - N/A   Clear
9:53 AM 81.0 °F 82.7 °F 64.9 °F 58% 30.10 in 10.0 mi Calm Calm - N/A   Clear
10:53 AM 84.0 °F 84.4 °F 61.0 °F 46% 30.10 in 10.0 mi Variable 3.5 mph - N/A   Clear
11:53 AM 84.9 °F 85.9 °F 63.0 °F 48% 30.10 in 10.0 mi Calm Calm - N/A   Clear
12:53 PM 87.1 °F 88.3 °F 64.0 °F 46% 30.09 in 10.0 mi Calm Calm - N/A   Clear
1:53 PM 88.0 °F 90.3 °F 66.0 °F 48% 30.06 in 10.0 mi Calm Calm - N/A   Clear
2:53 PM 87.1 °F 88.9 °F 64.9 °F 48% 30.05 in 10.0 mi WSW 5.8 mph - N/A   Clear
3:53 PM 88.0 °F 90.3 °F 66.0 °F 48% 30.04 in 10.0 mi WNW 5.8 mph - N/A   Partly Cloudy
4:53 PM 89.1 °F 91.3 °F 66.0 °F 46% 30.03 in 10.0 mi North 6.9 mph - N/A   Clear
5:53 PM 87.1 °F 88.9 °F 64.9 °F 48% 30.04 in 10.0 mi NW 5.8 mph - N/A   Clear
6:53 PM 84.9 °F 86.6 °F 64.9 °F 51% 30.04 in 10.0 mi NW 4.6 mph - N/A   Clear
7:53 PM 81.0 °F 83.0 °F 66.0 °F 60% 30.04 in 10.0 mi WNW 3.5 mph - N/A   Clear
8:53 PM 75.9 °F - 66.0 °F 71% 30.04 in 10.0 mi Calm Calm - N/A   Clear
9:53 PM 71.1 °F - 66.0 °F 84% 30.06 in 8.0 mi Calm Calm - N/A   Clear
10:53 PM 70.0 °F - 64.9 °F 84% 30.05 in 7.0 mi Calm Calm - N/A   Clear
11:53 PM 69.1 °F - 64.9 °F 87% 30.05 in 7.0 mi Calm Calm - N/A   Clear